Lebanon, NH

3:27 AM EST on November 24, 2017 (GMT -0500)
Lebanon Municipal

Weather History for KLEB - February, 2014

Change the Weather History Date:

Sunday, February 9, 2014

  Actual Average Record
Temperature  
Mean Temperature 19 °F -  
Max Temperature 26 °F 30 °F 52 °F (1990)
Min Temperature 12 °F 6 °F -33 °F (1934)
Degree Days  
Heating Degree Days 46    
Moisture  
Dew Point 12 °F    
Average Humidity 72    
Maximum Humidity 88    
Minimum Humidity 39    
Precipitation  
Precipitation 0.03 in - - ()
Sea Level Pressure  
Sea Level Pressure 30.03 in    
Wind  
Wind Speed 2 mph (SE)    
Max Wind Speed 7 mph    
Max Gust Speed -    
Visibility 5 miles    
Events Snow    
Averages and records for this station are not official NWS values.
T = Trace of Precipitation, MM = Missing Value Source: NWS Daily Summary

Daily Weather History Graph

Daily Weather History Graph

Search for Another Location

Airport or City:

Trip Planner

Search our weather history database for the weather conditions in past years. The results will help you decide how hot, cold, wet, or windy it might be!

Date:

Astronomy

Feb. 09, 2014 Rise Set
Actual Time 6:56 AM EST 5:11 PM EST
Civil Twilight 6:26 AM EST 5:41 PM EST
Nautical Twilight 5:52 AM EST 6:15 PM EST
Astronomical Twilight 5:19 AM EST 6:48 PM EST
Moon 12:45 PM EST (2/9) 3:01 AM EST (2/9)
Length of Visible Light 11h 15m
Length of Day
10h 15m
Waxing Gibbous, 77% of the Moon is Illuminated
Feb 9
Waxing Gibbous
Feb 14
Full
Feb 22
Last Quarter
Mar 1
New
Mar 8
First Quarter

Hourly Weather History & Observations

Time (EST) Temp. Windchill Dew Point Humidity Pressure Visibility Wind Dir Wind Speed Gust Speed Precip Events Conditions
12:53 AM 18.0 °F 11.1 °F 6.1 °F 60% 30.17 in 10.0 mi NNW 4.6 mph - N/A   Overcast
1:53 AM 17.1 °F 11.7 °F 5.0 °F 59% 30.17 in 10.0 mi North 3.5 mph - N/A   Overcast
2:53 AM 15.1 °F - 5.0 °F 64% 30.18 in 10.0 mi Calm Calm - N/A   Overcast
3:53 AM 16.0 °F - 5.0 °F 62% 30.17 in 10.0 mi Calm Calm - N/A   Overcast
4:53 AM 12.9 °F - 5.0 °F 71% 30.17 in 10.0 mi Calm Calm - N/A   Overcast
5:53 AM 14.0 °F - 5.0 °F 67% 30.17 in 10.0 mi Calm Calm - N/A   Overcast
6:53 AM 14.0 °F - 6.1 °F 71% 30.18 in 10.0 mi Calm Calm - N/A   Overcast
7:53 AM 12.9 °F 5.2 °F 6.1 °F 74% 30.19 in 6.0 mi South 4.6 mph - N/A   Haze
8:16 AM 12.0 °F 5.9 °F 7.0 °F 80% 30.14 in 10.0 mi South 3.5 mph - N/A   Scattered Clouds
8:53 AM 16.0 °F 10.4 °F 7.0 °F 68% 30.19 in 10.0 mi SSE 3.5 mph - N/A   Clear
9:53 AM 21.0 °F - 7.0 °F 55% 30.17 in 10.0 mi Calm Calm - N/A   Clear
10:53 AM 21.9 °F - 1.9 °F 42% 30.15 in 10.0 mi Calm Calm - N/A   Clear
11:53 AM 21.9 °F 13.4 °F 5.0 °F 48% 30.12 in 10.0 mi SSE 6.9 mph - N/A   Clear
12:53 PM 24.1 °F 17.0 °F 3.9 °F 42% 30.08 in 10.0 mi South 5.8 mph - N/A   Partly Cloudy
1:53 PM 25.0 °F - 3.0 °F 39% 30.04 in 10.0 mi Calm Calm - N/A   Clear
2:53 PM 25.0 °F - 3.9 °F 41% 30.02 in 10.0 mi Calm Calm - N/A   Clear
3:53 PM 26.1 °F 21.9 °F 5.0 °F 41% 29.99 in 10.0 mi ESE 3.5 mph - N/A   Overcast
4:53 PM 25.0 °F 18.1 °F 9.0 °F 51% 30.01 in 5.0 mi WSW 5.8 mph - 0.00 in Snow Light Snow
5:38 PM 23.0 °F 17.0 °F 14.0 °F 68% 29.98 in 3.0 mi South 4.6 mph - 0.00 in Snow Light Snow
5:53 PM 23.0 °F 17.0 °F 15.1 °F 72% 30.02 in 3.0 mi South 4.6 mph - 0.00 in Snow Light Snow
6:00 PM 21.9 °F 14.5 °F 16.0 °F 78% 29.98 in 2.5 mi South 5.8 mph - 0.00 in Snow Light Snow
6:15 PM 21.9 °F - 17.1 °F 82% 29.98 in 1.8 mi Calm Calm - 0.00 in Snow Light Snow
6:23 PM 21.9 °F - 17.1 °F 82% 29.97 in 2.0 mi Calm Calm - 0.00 in Snow Light Snow
6:38 PM 21.9 °F - 17.1 °F 82% 29.97 in 1.8 mi Calm Calm - 0.00 in Snow Light Snow
6:49 PM 21.2 °F - 17.6 °F 86% 29.96 in 2.5 mi Calm Calm - 0.00 in Snow Light Snow
6:53 PM 21.9 °F - 17.1 °F 82% 30.01 in 2.5 mi Calm Calm - 0.00 in Snow Light Snow
7:02 PM 21.9 °F - 17.1 °F 82% 29.96 in 3.0 mi Calm Calm - 0.01 in Snow Light Snow
7:36 PM 21.9 °F - 18.0 °F 85% 29.95 in 2.5 mi Calm Calm - 0.01 in Snow Light Snow
7:49 PM 21.2 °F - 17.6 °F 86% 29.95 in 2.0 mi Calm Calm - 0.01 in Snow Light Snow
7:53 PM 21.9 °F - 18.0 °F 85% 30.00 in 2.0 mi Calm Calm - 0.01 in Snow Light Snow
8:00 PM 21.9 °F 17.2 °F 18.0 °F 85% 29.94 in 1.5 mi NE 3.5 mph - 0.00 in Snow Light Snow
8:25 PM 21.9 °F 17.2 °F 18.0 °F 85% 29.93 in 1.5 mi NE 3.5 mph - 0.00 in Snow Light Snow
8:38 PM 21.9 °F 15.7 °F 18.0 °F 85% 29.93 in 2.0 mi NE 4.6 mph - 0.00 in Snow Light Snow
8:53 PM 21.9 °F 17.2 °F 17.1 °F 82% 29.97 in 4.0 mi NE 3.5 mph - 0.01 in   Haze
9:40 PM 21.0 °F - 18.0 °F 88% 29.92 in 2.5 mi Calm Calm - 0.00 in Snow Light Snow
9:50 PM 21.2 °F - 17.6 °F 86% 29.92 in 1.5 mi Calm Calm - 0.00 in Snow Light Snow
9:53 PM 21.0 °F - 17.1 °F 85% 29.97 in 1.5 mi Calm Calm - 0.00 in Snow Light Snow
10:24 PM 21.0 °F - 17.1 °F 85% 29.92 in 2.5 mi Calm Calm - 0.00 in Snow Light Snow
10:39 PM 21.0 °F - 17.1 °F 85% 29.91 in 1.5 mi Calm Calm - 0.00 in Snow Light Snow
10:53 PM 21.0 °F - 17.1 °F 85% 29.94 in 1.2 mi Calm Calm - 0.01 in Snow Light Snow
11:05 PM 21.0 °F - 17.1 °F 85% 29.90 in 2.0 mi Calm Calm - 0.00 in Snow Light Snow
11:39 PM 21.0 °F 16.2 °F 18.0 °F 88% 29.90 in 2.0 mi NW 3.5 mph - 0.00 in Snow Light Snow
11:53 PM 21.0 °F - 18.0 °F 88% 29.94 in 2.5 mi Calm Calm - 0.00 in Snow Light Snow